Location: Trois-Rivi�res
(46.3500°N, 72.5500°W)
Time: 00:29:02
(UTC-04:00)

Cosmos 1544 - Visible Passes

Search period start: 02 August 2014 00:00
Search period end: 12 August 2014 00:00
Orbit: 501 x 527 km, 82.5° (Epoch: 01 August)

Date Brightness Start Highest point End Pass type
(mag) Time Alt. Az. Time Alt. Az. Time Alt. Az.
02 Aug 4.9 03:48:18 10° SSE 03:51:40 31° E 03:55:03 10° NNE visible
03 Aug 5.2 03:32:56 10° SSE 03:36:06 25° E 03:39:15 10° NNE visible
04 Aug 5.4 03:17:38 10° SE 03:20:31 21° E 03:23:24 10° NE visible
04 Aug 4.2 04:52:43 10° SW 04:56:02 29° WNW 04:59:22 10° NNW visible
05 Aug 5.7 03:02:24 10° SE 03:04:56 17° E 03:07:29 10° NE visible
05 Aug 4.0 04:37:18 13° SW 04:40:21 35° WNW 04:43:50 10° N visible
06 Aug 5.8 02:47:17 10° ESE 02:49:21 14° E 02:51:26 10° NE visible
06 Aug 3.7 04:22:08 18° SW 04:24:39 42° WNW 04:28:16 10° N visible
07 Aug 5.9 02:32:23 10° ESE 02:33:47 12° E 02:35:10 10° ENE visible
07 Aug 3.4 04:06:57 24° SW 04:08:58 53° WNW 04:12:40 10° N visible
08 Aug 3.1 03:51:43 33° SSW 03:53:16 66° W 03:57:02 10° N visible
09 Aug 3.0 03:36:28 44° SSW 03:37:35 83° W 03:41:22 10° N visible
10 Aug 3.1 03:21:10 56° S 03:21:53 79° E 03:25:39 10° NNE visible
11 Aug 3.3 03:05:51 59° SE 03:06:12 63° E 03:09:55 10° NNE visible
11 Aug 5.4 04:41:16 10° W 04:42:18 11° WNW 04:43:20 10° NW visible
